This is the latest recevied weather packets stored in our database for station/object AD8IZ-13. If no packets are shown the sender has not sent any weather packets the latest 10 day(s).
| Time | Temp. | Humidity | Pressure | Rain* | Wind** | Luminosity | Snow |
|---|---|---|---|---|---|---|---|
| 1777637132 | 6.67° C | 86% | 1012.5 hPa | 0 mm | - | 54 W/m² | - |
| 1777636531 | 6.67° C | 87% | 1012.6 hPa | 0 mm | - | 33 W/m² | - |
| 1777635332 | 6.11° C | 87% | 1012.7 hPa | 0 mm | - | 15 W/m² | - |
| 1777634731 | 6.11° C | 88% | 1012.8 hPa | 0 mm | - | 20 W/m² | - |
| 1777634131 | 5.56° C | 89% | 1012.8 hPa | 0 mm | - | 12 W/m² | - |
| 1777633517 | 5.56° C | 91% | 1012.8 hPa | 0 mm | - | 12 W/m² | - |
| 1777632916 | 5.56° C | 91% | 1012.8 hPa | 0 mm | - | 11 W/m² | - |
| 1777632317 | 5.56° C | 91% | 1012.7 hPa | 0 mm | - | 6 W/m² | - |
| 1777631717 | 5° C | 93% | 1012.8 hPa | 0 mm | - | 2 W/m² | - |
| 1777631117 | 5° C | 95% | 1012.9 hPa | 0 mm | - | 1 W/m² | - |
| 1777630533 | 5° C | 96% | 1013 hPa | 0 mm | - | 0 W/m² | - |
| 1777629932 | 4.44° C | 98% | 1013 hPa | 0 mm | - | 0 W/m² | - |
| 1777629318 | 4.44° C | 98% | 1012.8 hPa | 0 mm | - | 0 W/m² | - |
| 1777628118 | 3.89° C | 98% | 1013 hPa | 0 mm | - | 0 W/m² | - |
| 1777627523 | 3.89° C | 98% | 1013.1 hPa | 0 mm | - | 0 W/m² | - |
| 1777626917 | 3.89° C | 98% | 1013.1 hPa | 0 mm | - | 0 W/m² | - |
| 1777626316 | 3.89° C | 98% | 1013.3 hPa | 0 mm | - | 0 W/m² | - |
| 1777625719 | 3.89° C | 98% | 1013.3 hPa | 0 mm | - | 0 W/m² | - |
| 1777625121 | 4.44° C | 98% | 1013.4 hPa | 0 mm | - | 0 W/m² | - |
| 1777624517 | 3.89° C | 98% | 1013.4 hPa | 0 mm | - | 0 W/m² | - |
| 1777623918 | 3.89° C | 98% | 1013.4 hPa | 0 mm | - | 0 W/m² | - |
| 1777623318 | 3.89° C | 98% | 1013.5 hPa | 0 mm | - | 0 W/m² | - |
| 1777622717 | 3.33° C | 98% | 1013.6 hPa | 0 mm | - | 0 W/m² | - |
| 1777622117 | 3.33° C | 98% | 1013.7 hPa | 0 mm | - | 0 W/m² | - |
| 1777620918 | 2.78° C | 98% | 1013.6 hPa | 0 mm | - | 0 W/m² | - |
* Rain latest hour (hover to see other rain measurements)
** Current wind speed in m/s (hover to see current wind gust speed)